sat.trackr.live / text

‹ back to catalog

QIANFAN-60

NORAD 62790 · 2025-016F

PAYLOAD ACTIVE UNKNOWN

§ Identity

Operator
Country
PRC
Launch date
2025-01-23
Launch site
TAISC
Launch vehicle
Mass (kg)
RCS (m²)

External: N2YO · Heavens-Above · Gunter

§ Orbital elements

Epoch: 2026-05-25T03:55:43.380192Z

Period
106.59 min
Inclination
88.9713°
Eccentricity
0.0013725
Mean motion
13.51008488 rev/d
Perigee alt
1,058.3 km
Apogee alt
1,078.8 km
Semi-major
7,446.7 km
B*
1.6341e-4
RAAN
86.0931°
Arg perigee
226.8925°
Mean anomaly
133.1078°
Rev number
6,929

§ Raw data

QIANFAN-601 62790U 25016F   26145.16369653  .00000118  00000+0  16341-3 0  99922 62790  88.9713  86.0931 0013725 226.8925 133.1078 13.51008488 69298

JSON: /api/v1/satellites/62790 · /tle

For live sub-satellite position, see the globe view (requires WebGL).

§ Visibility from observer

Set your observer location to see the next 7 days of passes ≥ 10°. The values pass through the URL so the page stays shareable.

No JS? Fill the form by hand. The geolocation button needs JavaScript.